This is the latest recevied weather packets stored in our database for station/object KC3DGM. If no packets are shown the sender has not sent any weather packets the latest 10 day(s).
| Time | Temp. | Humidity | Pressure | Rain* | Wind** | Luminosity | Snow |
|---|---|---|---|---|---|---|---|
| 1777771307 | 3.89° C | 74% | 987.7 hPa | 0 mm | - | 0 W/m² | - |
| 1777771003 | 3.89° C | 72% | 987.5 hPa | 0 mm | - | 0 W/m² | - |
| 1777770700 | 3.89° C | 72% | 987.5 hPa | 0 mm | - | 0 W/m² | - |
| 1777770396 | 3.89° C | 72% | 987.5 hPa | 0 mm | - | 0 W/m² | - |
| 1777770094 | 4.44° C | 71% | 987.7 hPa | 0 mm | - | 0 W/m² | - |
| 1777769791 | 4.44° C | 71% | 987.7 hPa | 0 mm | - | 0 W/m² | - |
| 1777769488 | 4.44° C | 70% | 987.6 hPa | 0 mm | - | 0 W/m² | - |
| 1777769184 | 4.44° C | 71% | 987.5 hPa | 0 mm | - | 0 W/m² | - |
| 1777768883 | 4.44° C | 71% | 987.4 hPa | 0 mm | - | 0 W/m² | - |
| 1777768580 | 4.44° C | 70% | 987.4 hPa | 0 mm | - | 0 W/m² | - |
| 1777768276 | 4.44° C | 69% | 987.4 hPa | 0 mm | - | 0 W/m² | - |
| 1777767974 | 4.44° C | 69% | 987.4 hPa | 0 mm | - | 0 W/m² | - |
| 1777767670 | 4.44° C | 68% | 987.3 hPa | 0 mm | - | 0 W/m² | - |
| 1777767366 | 5° C | 70% | 987.4 hPa | 0 mm | - | 0 W/m² | - |
| 1777767064 | 5° C | 69% | 987.2 hPa | 0 mm | - | 1 W/m² | - |
| 1777766761 | 5° C | 67% | 987.4 hPa | 0 mm | - | 2 W/m² | - |
| 1777766458 | 5° C | 68% | 987.4 hPa | 0 mm | - | 2 W/m² | - |
| 1777766154 | 5° C | 66% | 987.2 hPa | 0 mm | - | 5 W/m² | - |
| 1777765853 | 5° C | 65% | 987.3 hPa | 0 mm | - | 6 W/m² | - |
| 1777765548 | 5° C | 66% | 987.3 hPa | 0 mm | - | 8 W/m² | - |
| 1777765246 | 5° C | 65% | 987.2 hPa | 0 mm | - | 7 W/m² | - |
| 1777764946 | 5° C | 64% | 987.5 hPa | 0 mm | - | 6 W/m² | - |
| 1777764643 | 5° C | 64% | 987.1 hPa | 0 mm | - | 7 W/m² | - |
| 1777764339 | 5.56° C | 65% | 987.2 hPa | 0 mm | - | 11 W/m² | - |
| 1777764037 | 5.56° C | 65% | 987 hPa | 0 mm | - | 16 W/m² | - |
* Rain latest hour (hover to see other rain measurements)
** Current wind speed in m/s (hover to see current wind gust speed)